Weather Roundup
Issued by NWS

Home | Current Version | Previous Version | Text Only | Print | Product List | Glossary On
Versions: 1 2 3 4 5 6 7 8 9 10 11 12 13 14 15 16 17 18 19 20 21 22 23 24 25 26 27 28 29 30 31 32 33 34 35 36 37 38 39 40 41 42 43 44 45 46 47 48 49 50
546
NZUS93 KARX 070110
HRRWXR

CURRENT HOURLY OBSERVATIONS ACROSS
MUCH OF THE UPPER MISSISSIPPI VALLEY
NATIONAL WEATHER SERVICE LA CROSSE WI
700 PM CST SAT FEB 06 2016


...SOUTHEAST MINNESOTA...


CITY           SKY/WX    TMP DP  RH WIND       PRES   REMARKS
ROCHESTER      CLOUDY    28  24  85 S21G28    29.92F WCI  15
ROCHESTER/MAYO CLOUDY    29  27  93 S14G23    29.93F WCI  18
WINONA         CLOUDY    32  27  80 S7        29.98F WCI  26
AUSTIN         CLOUDY    27  27 100 S15       29.94F WCI  15
ALBERT LEA     CLOUDY    30  28  93 S12G20    29.91F WCI  21
DODGE CENTER   CLOUDY    28  27  93 S23       29.90F FOG     WCI  14
PRESTON        CLOUDY    27  25  93 S17       29.96F FOG     WCI  14
OWATONNA       CLOUDY    32  27  80 S20       29.88F WCI  20
FARIBAULT      MOCLDY    34  28  80 S13G22    29.88F WCI  25
$$

...ELSEWHERE IN MINNESOTA...


CITY           SKY/WX    TMP DP  RH WIND       PRES   REMARKS
MINNEAPOLIS    CLOUDY    36  26  67 S14G22    29.85F WCI  27
INTNL FALLS    LGT SNOW  30  29  96 SE7       29.62F FOG     WCI  23
DULUTH         CLOUDY    32  24  72 S15       29.72F WCI  22
RED WING       CLOUDY    32  27  80 S8G17     29.90F WCI  25
REDWOOD FALLS  CLOUDY    35  28  75 SW14      29.84R WCI  26
MANKATO        CLOUDY    34  27  75 S14G20    29.86S WCI  24
WORTHINGTON    CLOUDY    32  25  74 SW21G26   29.86S WCI  20
FAIRMONT       CLOUDY    34  27  75 S18       29.87F WCI  23
$$

...SOUTHWEST WISCONSIN...


CITY           SKY/WX    TMP DP  RH WIND       PRES   REMARKS
LA CROSSE      CLOUDY    30  24  78 S14       30.00F WCI  19
PRAIRIE DU CHI MOCLDY    31  26  79 S7        30.06F WCI  25
BOSCOBEL       CLOUDY    31  28  89 SW7       30.07F WCI  24
LONE ROCK      CLOUDY    30  25  81 S7        30.08F WCI  23
PLATTEVILLE    CLOUDY    28  26  93 S8        30.07F WCI  20
FORT MC COY    CLOUDY    31  25  78 SW9       30.00F WCI  23
CAMP DOUGLAS   CLOUDY    32  28  88 S9        29.99F WCI  24
VIROQUA        MOCLDY    28  26  92 S9        30.00F WCI  19
WIS DELLS      CLOUDY    29  25  83 SW9       30.04F WCI  21
$$

...ELSEWHERE IN WISCONSIN...


CITY           SKY/WX    TMP DP  RH WIND       PRES   REMARKS
MILWAUKEE      PTCLDY    31  25  78 SW3       30.10F
MADISON        CLOUDY    29  24  82 SW8       30.08F WCI  21
GREEN BAY      CLOUDY    30  24  78 S13       30.03F WCI  20
EAU CLAIRE     CLOUDY    32  23  69 S13       29.90F WCI  22
BLACK RVR FLS  MOCLDY    31  24  73 S5        29.97F WCI  27
MEDFORD        CLOUDY    29  23  78 S10       29.90F WCI  20
WAUSAU         CLOUDY    32  22  66 S14       29.93F WCI  22
WIS RAPIDS     MOCLDY    31  22  69 S8        30.00F WCI  23
MARSHFIELD     MOCLDY    31  21  66 S14       29.93F WCI  21
RICE LAKE      CLOUDY    31  25  79 SE13      29.86F WCI  21
$$

...NORTHEAST IOWA...


CITY           SKY/WX    TMP DP  RH WIND       PRES   REMARKS
WATERLOO       CLEAR     29  26  89 S12       30.03F WCI  19
DUBUQUE        CLOUDY    26  24  92 S8        30.07F FOG     WCI  18
DECORAH        CLOUDY    28  28 100 S9G16     30.00F WCI  20
MASON CITY     CLOUDY    30  27  88 S17       29.95F WCI  18
CHARLES CITY   CLOUDY    28  28 100 S17       29.99F FOG     WCI  16
OELWEIN        CLOUDY    28  28 100 S17       30.04F FOG     WCI  16
$$

...ELSEWHERE IN IOWA...


CITY           SKY/WX    TMP DP  RH WIND       PRES   REMARKS
DES MOINES     CLOUDY    35  30  82 S10       30.04F WCI  27
IOWA CITY      CLEAR     33  30  88 CALM      30.12F
FORT DODGE     CLOUDY    34  27  75 S20G25    29.96F WCI  22
MARSHALLTOWN   CLEAR     31  28  89 S9        30.02F WCI  23
CEDAR RAPIDS   CLEAR     30  30 100 S6        30.08F FOG     WCI  24
$$

...NORTHERN ILLINOIS...


CITY           SKY/WX    TMP DP  RH WIND       PRES   REMARKS
CHICAGO-OHARE  CLEAR     33  27  78 S6        30.12F WCI  28
CHICAGO-MIDWAY CLEAR     38  27  64 S6        30.14F WCI  33
MOLINE         CLEAR     29  25  85 CALM      30.12F
ROCKFORD       PTCLDY    31  26  82 W6        30.15S WCI  25
PEORIA         CLEAR     37  25  61 CALM      30.15F
$$

NOTE: "FAIR" INDICATES FEW OR NO CLOUDS BELOW 12,000 FEET WITH NO
SIGNIFICANT WEATHER AND/OR OBSTRUCTIONS TO VISIBILITY. WIND
SPEEDS ARE IN MILES-PER-HOUR.




USA.gov is the U.S. government's official web portal to all federal, state and local government web resources and services.